Indianapolis, IN

10:47 AM EST on December 13, 2017 (GMT -0500)
Indianapolis International

Weather History for KIND - March, 2014

Change the Weather History Date:

Tuesday, March 4, 2014

  Actual Average Record
Temperature  
Mean Temperature 20 °F 38 °F  
Max Temperature 32 °F 47 °F 78 °F (1983)
Min Temperature 7 °F 29 °F 2 °F (1873)
Degree Days  
Heating Degree Days 45 27  
Month to date heating degree days 170 111  
Since 1 July heating degree days 4967 4254  
Cooling Degree Days 0 0  
Month to date cooling degree days 0 0  
Year to date cooling degree days 0 0  
Moisture  
Dew Point 6 °F    
Average Humidity 60    
Maximum Humidity 76    
Minimum Humidity 43    
Precipitation  
Precipitation 0.00 in 0.10 in 3.00 in (1963)
Month to date precipitation 0.29 0.38  
Year to date precipitation 5.08 5.36  
Snow  
Snow 0.00 in 0.10 in 2.00 in (1993)
Month to date snowfall 2.4 0.5  
Since 1 July snowfall 54.7 23.6  
Snow Depth 2.00 in    
Sea Level Pressure  
Sea Level Pressure 30.29 in    
Wind  
Wind Speed 4 mph (ESE)    
Max Wind Speed 12 mph    
Max Gust Speed 13 mph    
Visibility 10 miles    
Events      
T = Trace of Precipitation, MM = Missing Value Source: NWS Daily Summary

Daily Weather History Graph

Daily Weather History Graph

Search for Another Location

Airport or City:

Trip Planner

Search our weather history database for the weather conditions in past years. The results will help you decide how hot, cold, wet, or windy it might be!

Date:

Astronomy

Mar. 04, 2014 Rise Set
Actual Time 7:13 AM EST 6:40 PM EST
Civil Twilight 6:46 AM EST 7:07 PM EST
Nautical Twilight 6:15 AM EST 7:38 PM EST
Astronomical Twilight 5:44 AM EST 8:10 PM EST
Moon 9:00 AM EST (3/4) 10:46 PM EST (3/4)
Length of Visible Light 12h 20m
Length of Day
11h 26m
Waxing Crescent, 14% of the Moon is Illuminated
Mar 4
Waxing Crescent
Mar 8
First Quarter
Mar 16
Full
Mar 23
Last Quarter
Mar 30
New

Hourly Weather History & Observations

Time (EST) Temp. Windchill Dew Point Humidity Pressure Visibility Wind Dir Wind Speed Gust Speed Precip Events Conditions
12:54 AM 10.0 °F 0.4 °F -2.0 °F 58% 30.40 in 10.0 mi East 5.8 mph - N/A   Mostly Cloudy
1:54 AM 10.0 °F 1.8 °F -2.0 °F 58% 30.40 in 10.0 mi ENE 4.6 mph - N/A   Overcast
2:54 AM 10.0 °F -0.9 °F -0.9 °F 61% 30.38 in 10.0 mi ESE 6.9 mph - N/A   Mostly Cloudy
3:54 AM 8.1 °F -5.3 °F -0.9 °F 67% 30.35 in 10.0 mi ESE 9.2 mph - N/A   Overcast
4:54 AM 8.1 °F 1.4 °F -0.9 °F 67% 30.36 in 10.0 mi ESE 3.5 mph - N/A   Overcast
5:54 AM 8.1 °F 1.4 °F -0.9 °F 67% 30.37 in 10.0 mi NNE 3.5 mph - N/A   Mostly Cloudy
6:54 AM 7.0 °F 0.1 °F -0.9 °F 70% 30.38 in 10.0 mi ENE 3.5 mph - N/A   Scattered Clouds
7:54 AM 9.0 °F 0.6 °F 1.9 °F 73% 30.37 in 10.0 mi ESE 4.6 mph - N/A   Mostly Cloudy
8:54 AM 10.9 °F -0.8 °F 1.9 °F 67% 30.35 in 10.0 mi SE 8.1 mph - N/A   Mostly Cloudy
9:54 AM 14.0 °F 6.5 °F 5.0 °F 67% 30.33 in 10.0 mi ESE 4.6 mph - N/A   Mostly Cloudy
10:54 AM 18.0 °F 12.7 °F 7.0 °F 62% 30.32 in 10.0 mi SSW 3.5 mph - N/A   Mostly Cloudy
11:54 AM 19.9 °F 12.1 °F 8.1 °F 60% 30.31 in 10.0 mi SSW 5.8 mph - N/A   Mostly Cloudy
12:54 PM 24.1 °F 18.2 °F 10.0 °F 55% 30.26 in 10.0 mi NNE 4.6 mph - N/A   Mostly Cloudy
1:54 PM 26.1 °F - 9.0 °F 49% 30.25 in 10.0 mi Calm Calm - N/A   Partly Cloudy
2:54 PM 28.9 °F - 10.9 °F 47% 30.23 in 10.0 mi Calm Calm - N/A   Partly Cloudy
3:54 PM 28.9 °F - 10.9 °F 47% 30.22 in 10.0 mi Calm Calm - N/A   Scattered Clouds
4:54 PM 30.0 °F 26.5 °F 12.9 °F 49% 30.21 in 10.0 mi Variable 3.5 mph - N/A   Scattered Clouds
5:54 PM 30.9 °F - 10.9 °F 43% 30.21 in 10.0 mi Calm Calm - N/A   Scattered Clouds
6:54 PM 28.0 °F - 14.0 °F 56% 30.22 in 10.0 mi Calm Calm - N/A   Scattered Clouds
7:54 PM 28.0 °F 24.2 °F 12.0 °F 51% 30.22 in 10.0 mi SE 3.5 mph - N/A   Partly Cloudy
8:54 PM 24.1 °F 16.0 °F 15.1 °F 69% 30.22 in 10.0 mi SE 6.9 mph - N/A   Partly Cloudy
9:54 PM 24.1 °F 17.0 °F 12.9 °F 62% 30.22 in 10.0 mi SSE 5.8 mph - N/A   Partly Cloudy
10:54 PM 23.0 °F - 12.0 °F 63% 30.23 in 10.0 mi Calm Calm - N/A   Clear
11:54 PM 21.9 °F 17.2 °F 12.0 °F 66% 30.22 in 10.0 mi ENE 3.5 mph - N/A   Clear